Погода в Святых Константине и Елене

Болгария     43°13′50″N   28°00′32″E
темп.,
°C
ветер,
м/с
пор.,
м/с
влажн.,
%
обл.,
%
осадки,
мм/ч
давл.,
гПа
погр.,
м
5 августа, чт
чт500:00+23ююз34925 0.0 1015143
03:00+23ююз23921 0.0 1014104
06:00+22юз22920 0.0 101371
09:00+27ююз34690 0.0 1012373
12:00+29ююв66630 0.0 1012684
15:00+29юв67650 0.0 1010514
18:00+28юв79734 0.0 1008496
21:00+25ююв511895 0.0 1007400
6 августа, пт
пт600:00+24ююв34895 0.0 100792
03:00+24ююв35925 0.0 1005170
06:00+24ю2291100 0.0 100467
09:00+27ссз2367100 0.0 1004485
12:00+31с4638100 0.0 10041021
15:00+30с5639100 0.0 10031008
18:00+30ссв4648100 0.1 1002965
21:00+25ссз1251100 0.1 100411
7 августа, сб
сб700:00+24сз4854100 0.1 1005149
03:00+22сз6106594 0.3 1005262
06:00+20ссз4676100 0.2 1007163
09:00+20ссз4778100 1.1 1009254
12:00+23ссв7862100 0.0 1011751
15:00+27ссв794220 0.0 10111095
18:00+29св57380 0.0 10111523
21:00+24св33520 0.0 101358
8 августа, вс
вс800:00+21с22500 0.0 101446
03:00+20ссз33510 0.0 101449
06:00+19ссз33580 0.0 101568
09:00+25св35410 0.0 1016521
12:00+28вюв54412 0.0 10171027
15:00+28вюв64450 0.0 1016799
18:00+26вюв55550 0.0 1016552
21:00+22юв12730 0.0 1017137
9 августа, пн
пн900:00+21ю12754 0.0 1018134
03:00+21зюз11801 0.0 101760
06:00+20сз11770 0.0 101736
09:00+26юв11500 0.0 1017341
12:00+29вюв43410 0.0 1017763
15:00+29вюв54375 0.0 1017685
18:00+28вюв453981 0.0 1016439
21:00+23вюв336836 0.0 101690